TimeMDT,TemperatureF,Dew PointF,Humidity,Sea Level PressureIn,VisibilityMPH,Wind Direction,Wind SpeedMPH,Gust SpeedMPH,PrecipitationIn,Events,Conditions,WindDirDegrees,DateUTC
12:15 AM,46.4,46.4,100,29.95,1.2,Calm,Calm,-,N/A,,Partly Cloudy,0,2013-09-24 06:15:00
12:35 AM,46.4,44.6,93,29.95,0.8,Calm,Calm,-,N/A,,Clear,0,2013-09-24 06:35:00
12:43 AM,44.6,44.6,100,29.95,2.0,Calm,Calm,-,N/A,,Clear,0,2013-09-24 06:43:00
12:52 AM,45.0,44.1,97,29.96,0.8,Calm,Calm,-,N/A,,Clear,0,2013-09-24 06:52:00
1:03 AM,44.6,44.6,100,29.95,0.2,Calm,Calm,-,N/A,Fog,Fog,0,2013-09-24 07:03:00
1:12 AM,44.6,44.6,100,29.95,1.0,Calm,Calm,-,N/A,,Clear,0,2013-09-24 07:12:00
1:17 AM,44.6,44.6,100,29.96,3.0,Calm,Calm,-,N/A,,Clear,0,2013-09-24 07:17:00
1:52 AM,45.0,43.0,93,29.97,10.0,Calm,Calm,-,N/A,,Clear,0,2013-09-24 07:52:00
2:52 AM,43.0,41.0,93,29.98,10.0,Calm,Calm,-,N/A,,Clear,0,2013-09-24 08:52:00
3:52 AM,42.1,39.0,89,29.98,10.0,WNW,3.5,-,N/A,,Clear,300,2013-09-24 09:52:00
4:52 AM,43.0,39.0,86,30.00,10.0,WNW,6.9,-,N/A,,Clear,300,2013-09-24 10:52:00
5:52 AM,45.0,37.9,76,30.00,10.0,West,5.8,-,N/A,,Clear,280,2013-09-24 11:52:00
6:52 AM,45.0,39.0,80,30.01,10.0,WNW,6.9,-,N/A,,Clear,300,2013-09-24 12:52:00
7:52 AM,51.1,42.1,71,30.02,10.0,WNW,5.8,-,N/A,,Clear,300,2013-09-24 13:52:00
8:52 AM,57.0,41.0,55,30.02,10.0,WNW,3.5,-,N/A,,Clear,300,2013-09-24 14:52:00
9:52 AM,63.0,42.1,46,30.00,10.0,SSE,5.8,-,N/A,,Clear,150,2013-09-24 15:52:00
10:52 AM,64.9,46.9,52,29.99,10.0,SE,9.2,-,N/A,,Clear,130,2013-09-24 16:52:00
11:52 AM,72.0,46.0,40,29.97,10.0,South,16.1,-,N/A,,Clear,170,2013-09-24 17:52:00
12:52 PM,73.9,39.9,29,29.94,10.0,South,18.4,26.5,N/A,,Clear,170,2013-09-24 18:52:00
1:52 PM,75.0,41.0,29,29.91,10.0,South,16.1,25.3,N/A,,Clear,170,2013-09-24 19:52:00
2:52 PM,75.9,39.0,26,29.88,10.0,South,19.6,26.5,N/A,,Clear,170,2013-09-24 20:52:00
3:52 PM,75.9,39.0,26,29.86,10.0,South,19.6,29.9,N/A,,Clear,170,2013-09-24 21:52:00
4:52 PM,75.0,37.9,26,29.84,10.0,South,18.4,25.3,N/A,,Clear,170,2013-09-24 22:52:00
5:52 PM,71.1,39.9,32,29.82,10.0,SSE,16.1,-,N/A,,Clear,150,2013-09-24 23:52:00
6:52 PM,64.0,43.0,46,29.82,10.0,SSE,10.4,-,N/A,,Clear,150,2013-09-25 00:52:00
7:52 PM,59.0,44.1,58,29.81,10.0,SSE,11.5,-,N/A,,Clear,150,2013-09-25 01:52:00
8:52 PM,57.0,44.1,62,29.82,10.0,South,8.1,-,N/A,,Clear,190,2013-09-25 02:52:00
9:52 PM,55.0,43.0,64,29.81,10.0,South,9.2,-,N/A,,Clear,170,2013-09-25 03:52:00
10:52 PM,55.9,44.1,64,29.78,10.0,South,10.4,-,N/A,,Clear,170,2013-09-25 04:52:00
11:52 PM,54.0,43.0,66,29.75,10.0,South,12.7,-,N/A,,Clear,170,2013-09-25 05:52:00